sat.trackr.live / text

‹ back to catalog

2026-052C

NORAD 68200 · 2026-052C

PAYLOAD ACTIVE UNKNOWN

§ Identity

Operator
Country
PRC
Launch date
2026-03-16
Launch site
JSC
Launch vehicle
Mass (kg)
RCS (m²)

External: N2YO · Heavens-Above · Gunter

§ Orbital elements

Epoch: 2026-09-19T22:18:23.679936Z

Period
95.30 min
Inclination
97.5285°
Eccentricity
0.0001209
Mean motion
15.11056435 rev/d
Perigee alt
532.1 km
Apogee alt
533.8 km
Semi-major
6,911.1 km
B*
1.0220e-4
RAAN
336.2379°
Arg perigee
94.8586°
Mean anomaly
265.2782°
Rev number
2,834

§ Raw data

2026-052C1 68200U 26052C   26262.92944074  .00001645  00000+0  10220-3 0  99912 68200  97.5285 336.2379 0001209  94.8586 265.2782 15.11056435 28349

JSON: /api/v1/satellites/68200 · /tle

For live sub-satellite position, see the globe view (requires WebGL).

§ Visibility from observer

Set your observer location to see the next 7 days of passes ≥ 10°. The values pass through the URL so the page stays shareable.

No JS? Fill the form by hand. The geolocation button needs JavaScript.